| time (UTC) | temp C | wind direction | speed KPH | gust KPH | rain 1hr cm | rain 24hr cm | rain mn cm | humidity % | barometer mb |
| 20260502213024 | 12 | 280 | 6.4 | 14.5 | 0.00 | 0.91 | 0.91 | 48 | 1009.8 |
| 20260502212503 | 12 | 292 | 4.8 | 9.7 | 0.00 | 0.91 | 0.91 | 49 | 1009.7 |
| 20260502212007 | 12 | 9 | 3.2 | 8.0 | 0.00 | 0.91 | 0.91 | 54 | 1009.7 |
| 20260502211517 | 12 | 9 | 1.6 | 11.3 | 0.00 | 0.91 | 0.91 | 57 | 1009.6 |
| 20260502211011 | 13 | 298 | 4.8 | 12.9 | 0.00 | 0.91 | 0.91 | 51 | 1009.6 |
| 20260502210507 | 13 | 236 | 3.2 | 17.7 | 0.00 | 0.91 | 0.91 | 49 | 1009.6 |
| 20260502210023 | 13 | 284 | 8.0 | 17.7 | 0.00 | 0.91 | 0.91 | 50 | 1009.6 |
| 20260502205508 | 13 | 240 | 4.8 | 16.1 | 0.00 | 0.91 | 0.91 | 52 | 1009.6 |
| 20260502205013 | 12 | 306 | 4.8 | 16.1 | 0.00 | 0.91 | 0.91 | 51 | 1009.7 |
| 20260502204528 | 12 | 275 | 3.2 | 16.1 | 0.00 | 0.91 | 0.91 | 49 | 1009.7 |
| 20260502204007 | 12 | 306 | 3.2 | 16.1 | 0.00 | 0.91 | 0.91 | 52 | 1009.8 |
| 20260502203507 | 12 | 305 | 3.2 | 14.5 | 0.00 | 0.91 | 0.91 | 49 | 1009.8 |
| 20260502203026 | 12 | 245 | 3.2 | 12.9 | 0.00 | 0.91 | 0.91 | 54 | 1009.8 |
| 20260502202504 | 12 | 252 | 3.2 | 20.9 | 0.00 | 0.91 | 0.91 | 52 | 1009.7 |
| 20260502202004 | 12 | 261 | 1.6 | 20.9 | 0.00 | 0.91 | 0.91 | 52 | 1009.7 |
| 20260502201512 | 13 | 48 | 9.7 | 16.1 | 0.00 | 0.91 | 0.91 | 51 | 1009.6 |
| 20260502201003 | 13 | 330 | 3.2 | 12.9 | 0.00 | 0.91 | 0.91 | 54 | 1009.7 |
| 20260502200506 | 13 | 319 | 6.4 | 12.9 | 0.00 | 0.91 | 0.91 | 53 | 1009.7 |
| 20260502200018 | 13 | 165 | 3.2 | 14.5 | 0.00 | 0.91 | 0.91 | 56 | 1009.7 |
| 20260502195511 | 13 | 178 | 6.4 | 14.5 | 0.00 | 0.91 | 0.91 | 56 | 1009.7 |
| 20260502195007 | 13 | 336 | 3.2 | 19.3 | 0.00 | 0.91 | 0.91 | 55 | 1009.8 |
| 20260502194539 | 13 | 48 | 4.8 | 19.3 | 0.00 | 0.91 | 0.91 | 57 | 1009.8 |
| 20260502194009 | 13 | 255 | 6.4 | 16.1 | 0.00 | 0.91 | 0.91 | 55 | 1009.8 |
| 20260502193509 | 13 | 300 | 1.6 | 24.1 | 0.00 | 0.91 | 0.91 | 63 | 1009.9 |
| 20260502193031 | 13 | 47 | 6.4 | 24.1 | 0.00 | 0.91 | 0.91 | 63 | 1009.8 |
| 20260502192512 | 13 | 11 | 11.3 | 19.3 | 0.00 | 0.91 | 0.91 | 60 | 1009.8 |
| 20260502192011 | 13 | 45 | 4.8 | 16.1 | 0.00 | 0.91 | 0.91 | 62 | 1009.7 |
| 20260502191511 | 13 | 36 | 4.8 | 14.5 | 0.00 | 0.91 | 0.91 | 62 | 1009.8 |
| 20260502191009 | 13 | 304 | 8.0 | 14.5 | 0.00 | 0.91 | 0.91 | 63 | 1009.8 |
| 20260502190505 | 14 | 101 | 1.6 | 14.5 | 0.00 | 0.91 | 0.91 | 53 | 1009.8 |
| 20260502190020 | 14 | 297 | 4.8 | 14.5 | 0.00 | 0.91 | 0.91 | 56 | 1009.9 |
| 20260502185507 | 13 | 28 | 6.4 | 17.7 | 0.00 | 0.91 | 0.91 | 60 | 1009.8 |
| 20260502185008 | 13 | 265 | 11.3 | 17.7 | 0.00 | 0.91 | 0.91 | 60 | 1009.8 |
| 20260502184530 | 13 | 51 | 1.6 | 14.5 | 0.00 | 0.91 | 0.91 | 64 | 1009.9 |
| 20260502184009 | 13 | 178 | 4.8 | 14.5 | 0.00 | 0.91 | 0.91 | 67 | 1009.9 |
| 20260502183511 | 13 | 170 | 3.2 | 14.5 | 0.00 | 0.91 | 0.91 | 68 | 1009.9 |
| 20260502183022 | 13 | 165 | 4.8 | 22.5 | 0.00 | 0.91 | 0.91 | 72 | 1010.0 |
| 20260502182513 | 13 | 207 | 8.0 | 22.5 | 0.00 | 0.91 | 0.91 | 70 | 1010.0 |
| 20260502182010 | 13 | 129 | 8.0 | 19.3 | 0.00 | 0.91 | 0.91 | 72 | 1010.0 |
| 20260502181534 | 13 | 163 | 9.7 | 25.7 | 0.00 | 0.91 | 0.91 | 74 | 1010.1 |
| 20260502181010 | 12 | 201 | 11.3 | 25.7 | 0.00 | 0.91 | 0.91 | 72 | 1010.2 |
| 20260502180513 | 13 | 196 | 12.9 | 30.6 | 0.00 | 0.91 | 0.91 | 73 | 1010.3 |
| 20260502170510 | 12 | 33 | 9.7 | 16.1 | 0.00 | 0.91 | 0.91 | 73 | 1010.4 |
| 20260502164007 | 12 | 80 | 6.4 | 11.3 | 0.00 | 0.91 | 0.91 | 76 | 1010.6 |
| 20260502163507 | 12 | 242 | 3.2 | 9.7 | 0.00 | 0.91 | 0.91 | 78 | 1010.7 |
| 20260502163040 | 12 | 178 | 3.2 | 9.7 | 0.00 | 0.91 | 0.91 | 81 | 1010.7 |
| 20260502162507 | 11 | 128 | 3.2 | 8.0 | 0.00 | 0.91 | 0.91 | 81 | 1010.8 |
| 20260502162011 | 11 | 193 | 0.0 | 6.4 | 0.00 | 0.91 | 0.91 | 80 | 1010.8 |
| 20260502161525 | 11 | 34 | 1.6 | 8.0 | 0.00 | 0.91 | 0.91 | 79 | 1010.9 |
| 20260502161009 | 11 | 80 | 0.0 | 8.0 | 0.00 | 0.91 | 0.91 | 79 | 1010.9 |
| 20260502160513 | 11 | 212 | 3.2 | 11.3 | 0.00 | 0.91 | 0.91 | 87 | 1010.9 |
| 20260502152007 | 10 | 93 | 3.2 | 11.3 | 0.18 | 0.91 | 0.91 | 90 | 1011.4 |
| 20260502151522 | 10 | 74 | 4.8 | 11.3 | 0.20 | 0.91 | 0.91 | 90 | 1011.5 |
| 20260502151009 | 9 | 70 | 3.2 | 12.9 | 0.20 | 0.91 | 0.91 | 90 | 1011.6 |
| 20260502150511 | 9 | 45 | 4.8 | 12.9 | 0.20 | 0.91 | 0.91 | 90 | 1011.7 |
| 20260502130506 | 8 | 123 | 1.6 | 6.4 | 0.00 | 0.71 | 0.71 | 93 | 1012.1 |
| 20260502123511 | 7 | 178 | 1.6 | 4.8 | 0.00 | 0.71 | 0.71 | 93 | 1012.3 |
| 20260502123026 | 7 | 212 | 1.6 | 3.2 | 0.00 | 0.71 | 0.71 | 94 | 1012.3 |
| 20260502122511 | 7 | 265 | 0.0 | 4.8 | 0.00 | 0.71 | 0.71 | 94 | 1012.1 |
| 20260502122006 | 7 | 238 | 1.6 | 4.8 | 0.00 | 0.71 | 0.71 | 94 | 1012.2 |
| 20260502121526 | 7 | 205 | 0.0 | 3.2 | 0.03 | 0.71 | 0.71 | 94 | 1012.2 |
| 20260502121005 | 7 | 205 | 1.6 | 4.8 | 0.03 | 0.71 | 0.71 | 94 | 1012.2 |
| 20260502120509 | 7 | 93 | 0.0 | 4.8 | 0.03 | 0.71 | 0.71 | 94 | 1012.1 |
| 20260502115508 | 7 | 51 | 1.6 | 4.8 | 0.05 | 0.71 | 0.71 | 94 | 1012.1 |
| 20260502115007 | 7 | 51 | 1.6 | 4.8 | 0.05 | 0.71 | 0.71 | 94 | 1012.1 |
| 20260502114530 | 7 | 41 | 1.6 | 4.8 | 0.05 | 0.71 | 0.71 | 94 | 1011.9 |
| 20260502114010 | 7 | 38 | 1.6 | 4.8 | 0.05 | 0.71 | 0.71 | 94 | 1011.9 |
| 20260502113507 | 7 | 34 | 0.0 | 4.8 | 0.05 | 0.71 | 0.71 | 94 | 1012.1 |
| 20260502113027 | 7 | 309 | 0.0 | 4.8 | 0.05 | 0.71 | 0.71 | 94 | 1012.1 |
| 20260502112512 | 7 | 44 | 1.6 | 4.8 | 0.05 | 0.71 | 0.71 | 94 | 1011.9 |
| 20260502112009 | 7 | 265 | 0.0 | 3.2 | 0.05 | 0.71 | 0.71 | 94 | 1012.0 |
| 20260502111526 | 7 | 93 | 0.0 | 3.2 | 0.03 | 0.69 | 0.69 | 94 | 1012.0 |
| 20260502111003 | 7 | 9 | 0.0 | 3.2 | 0.03 | 0.69 | 0.69 | 94 | 1012.1 |
| 20260502110507 | 7 | 265 | 0.0 | 3.2 | 0.03 | 0.69 | 0.69 | 94 | 1012.0 |
| 20260502110016 | 7 | 193 | 1.6 | 3.2 | 0.00 | 0.66 | 0.66 | 94 | 1012.1 |
| 20260502105508 | 7 | 178 | 1.6 | 3.2 | 0.00 | 0.66 | 0.66 | 94 | 1011.9 |
| 20260502105007 | 6 | 205 | 0.0 | 3.2 | 0.00 | 0.66 | 0.66 | 94 | 1012.0 |
| 20260502104522 | 6 | 119 | 0.0 | 3.2 | 0.00 | 0.66 | 0.66 | 94 | 1012.0 |
| 20260502104009 | 6 | 153 | 0.0 | 3.2 | 0.00 | 0.66 | 0.66 | 94 | 1011.9 |
| 20260502103510 | 6 | 265 | 0.0 | 1.6 | 0.00 | 0.66 | 0.66 | 94 | 1011.9 |
| 20260502103022 | 6 | 265 | 0.0 | 4.8 | 0.00 | 0.66 | 0.66 | 94 | 1011.8 |
| 20260502102512 | 6 | 22 | 0.0 | 6.4 | 0.00 | 0.66 | 0.66 | 94 | 1011.7 |
| 20260502102009 | 6 | 22 | 3.2 | 6.4 | 0.00 | 0.66 | 0.66 | 94 | 1011.6 |
| 20260502101525 | 6 | 59 | 3.2 | 6.4 | 0.00 | 0.66 | 0.66 | 94 | 1011.5 |
| 20260502101008 | 6 | 38 | 1.6 | 6.4 | 0.03 | 0.66 | 0.66 | 94 | 1011.5 |
| 20260502100509 | 6 | 93 | 1.6 | 6.4 | 0.03 | 0.66 | 0.66 | 94 | 1011.6 |
| 20260502091526 | 6 | 41 | 0.0 | 4.8 | 0.20 | 0.66 | 0.66 | 93 | 1011.9 |
| 20260502091010 | 6 | 330 | 1.6 | 4.8 | 0.20 | 0.64 | 0.64 | 93 | 1011.9 |
| 20260502090509 | 6 | 9 | 1.6 | 4.8 | 0.23 | 0.64 | 0.64 | 93 | 1011.9 |
| 20260502071521 | 6 | 55 | 3.2 | 9.7 | 0.20 | 0.30 | 0.30 | 92 | 1012.0 |
| 20260502071006 | 6 | 18 | 4.8 | 12.9 | 0.20 | 0.28 | 0.28 | 92 | 1012.1 |
| 20260502070513 | 6 | 22 | 3.2 | 12.9 | 0.23 | 0.28 | 0.28 | 92 | 1012.1 |
| 20260502070035 | 6 | 342 | 3.2 | 8.0 | 0.20 | 0.25 | 0.25 | 92 | 1012.1 |
| 20260502065509 | 6 | 330 | 1.6 | 9.7 | 0.20 | 0.25 | 0.25 | 92 | 1012.1 |
| 20260502065012 | 6 | 316 | 3.2 | 9.7 | 0.20 | 0.25 | 0.25 | 92 | 1012.1 |
| 20260502064538 | 6 | 44 | 4.8 | 8.0 | 0.18 | 0.23 | 0.23 | 92 | 1012.1 |
| 20260502064009 | 6 | 51 | 3.2 | 6.4 | 0.15 | 0.20 | 0.20 | 92 | 1012.2 |
| 20260502063512 | 6 | 34 | 3.2 | 6.4 | 0.15 | 0.20 | 0.20 | 91 | 1012.2 |
| 20260502063028 | 6 | 9 | 1.6 | 4.8 | 0.13 | 0.18 | 0.18 | 91 | 1012.3 |
| 20260502062507 | 6 | 9 | 0.0 | 4.8 | 0.15 | 0.18 | 0.18 | 91 | 1012.3 |
| 20260502062010 | 6 | 9 | 1.6 | 4.8 | 0.13 | 0.15 | 0.15 | 91 | 1012.3 |
| 20260502061517 | 7 | 9 | 1.6 | 6.4 | 0.08 | 0.10 | 0.10 | 91 | 1012.3 |
| 20260502061007 | 6 | 338 | 1.6 | 6.4 | 0.05 | 0.08 | 0.08 | 91 | 1012.4 |
| 20260502060507 | 6 | 291 | 1.6 | 8.0 | 0.05 | 0.05 | 0.05 | 91 | 1012.5 |
| 20260502060018 | 6 | 19 | 4.8 | 9.7 | 0.05 | 0.05 | 0.05 | 90 | 1012.4 |
| 20260502055507 | 6 | 28 | 4.8 | 9.7 | 0.05 | 0.05 | 0.05 | 90 | 1012.3 |
| 20260502055006 | 6 | 46 | 4.8 | 8.0 | 0.05 | 0.05 | 0.05 | 90 | 1012.5 |
| 20260502054520 | 6 | 19 | 3.2 | 6.4 | 0.05 | 0.05 | 0.05 | 89 | 1012.6 |
| 20260502054007 | 6 | 76 | 3.2 | 6.4 | 0.05 | 0.05 | 0.05 | 89 | 1012.6 |
| 20260502053503 | 7 | 30 | 1.6 | 4.8 | 0.05 | 0.05 | 0.05 | 88 | 1012.8 |
| 20260502053010 | 7 | 26 | 0.0 | 6.4 | 0.05 | 0.05 | 0.05 | 88 | 1012.8 |
| 20260502052506 | 7 | 325 | 0.0 | 6.4 | 0.03 | 0.03 | 0.03 | 87 | 1012.7 |
| 20260502052011 | 7 | 247 | 1.6 | 4.8 | 0.03 | 0.03 | 0.03 | 86 | 1012.6 |
| 20260502051518 | 7 | 265 | 3.2 | 6.4 | 0.03 | 0.03 | 0.03 | 85 | 1012.5 |
| 20260502051006 | 7 | 342 | 3.2 | 6.4 | 0.03 | 0.03 | 0.03 | 85 | 1012.4 |
| 20260502050506 | 7 | 314 | 0.0 | 4.8 | 0.00 | 0.00 | 0.00 | 83 | 1012.4 |
| 20260502050020 | 7 | 265 | 1.6 | 4.8 | 0.00 | 0.00 | 0.00 | 81 | 1012.4 |
| 20260502045508 | 7 | 227 | 1.6 | 4.8 | 0.00 | 0.00 | 0.00 | 81 | 1012.3 |
| 20260502045006 | 7 | 209 | 1.6 | 4.8 | 0.00 | 0.00 | 0.00 | 80 | 1012.3 |
| 20260502044520 | 7 | 178 | 3.2 | 4.8 | 0.00 | 0.00 | 0.00 | 80 | 1012.3 |
| 20260502044007 | 7 | 165 | 1.6 | 4.8 | 0.00 | 0.00 | 0.00 | 79 | 1012.2 |
| 20260502043508 | 7 | 146 | 0.0 | 3.2 | 0.00 | 0.00 | 0.00 | 79 | 1012.1 |
| 20260502043022 | 7 | 232 | 0.0 | 6.4 | 0.00 | 0.00 | 0.00 | 77 | 1012.0 |
| 20260502042507 | 7 | 291 | 1.6 | 6.4 | 0.00 | 0.00 | 0.00 | 78 | 1012.0 |
| 20260502042006 | 7 | 212 | 1.6 | 6.4 | 0.00 | 0.00 | 0.00 | 78 | 1011.9 |
| 20260502041522 | 7 | 168 | 0.0 | 4.8 | 0.00 | 0.00 | 0.00 | 75 | 1011.8 |
| 20260502041007 | 7 | 321 | 1.6 | 4.8 | 0.00 | 0.00 | 0.00 | 75 | 1011.7 |
| 20260502040507 | 7 | 319 | 1.6 | 4.8 | 0.00 | 0.00 | 0.00 | 76 | 1011.7 |
| 20260502040015 | 7 | 325 | 1.6 | 4.8 | 0.00 | 0.00 | 0.00 | 77 | 1011.7 |
| 20260502035510 | 7 | 26 | 3.2 | 4.8 | 0.00 | 0.00 | 0.00 | 79 | 1011.7 |
| 20260502035006 | 7 | 51 | 1.6 | 4.8 | 0.00 | 0.00 | 0.00 | 78 | 1011.7 |
| 20260502034534 | 7 | 330 | 1.6 | 4.8 | 0.00 | 0.00 | 0.00 | 78 | 1011.7 |
| 20260502034012 | 7 | 51 | 0.0 | 3.2 | 0.00 | 0.00 | 0.00 | 77 | 1011.8 |
| 20260502033510 | 7 | 51 | 0.0 | 3.2 | 0.00 | 0.00 | 0.00 | 79 | 1011.8 |
| 20260502033023 | 7 | 205 | 1.6 | 3.2 | 0.00 | 0.00 | 0.00 | 79 | 1011.7 |
| 20260502032506 | 7 | 247 | 1.6 | 4.8 | 0.00 | 0.00 | 0.00 | 80 | 1011.7 |
| 20260502032004 | 7 | 265 | 1.6 | 4.8 | 0.00 | 0.00 | 0.00 | 76 | 1011.7 |
| 20260502031508 | 7 | 295 | 1.6 | 6.4 | 0.00 | 0.00 | 0.00 | 76 | 1011.7 |
| 20260502031003 | 7 | 232 | 3.2 | 6.4 | 0.00 | 0.00 | 0.00 | 78 | 1011.6 |
| 20260502030503 | 7 | 153 | 0.0 | 3.2 | 0.00 | 0.00 | 0.00 | 73 | 1011.6 |
| 20260502030003 | 7 | 146 | 0.0 | 8.0 | 0.00 | 0.00 | 0.00 | 74 | 1011.7 |
| 20260502025503 | 7 | 51 | 1.6 | 8.0 | 0.00 | 0.00 | 0.00 | 72 | 1011.7 |
| 20260502025002 | 7 | 51 | 4.8 | 6.4 | 0.00 | 0.00 | 0.00 | 71 | 1011.7 |
| 20260502024510 | 8 | 41 | 1.6 | 6.4 | 0.00 | 0.00 | 0.00 | 70 | 1011.6 |
| 20260502024003 | 8 | 9 | 0.0 | 6.4 | 0.00 | 0.00 | 0.00 | 70 | 1011.6 |
| 20260502023503 | 7 | 309 | 1.6 | 6.4 | 0.00 | 0.00 | 0.00 | 70 | 1011.6 |
| 20260502023005 | 7 | 210 | 3.2 | 8.0 | 0.00 | 0.00 | 0.00 | 71 | 1011.5 |
| 20260502022503 | 7 | 247 | 4.8 | 8.0 | 0.00 | 0.00 | 0.00 | 71 | 1011.6 |
| 20260502022003 | 7 | 234 | 4.8 | 6.4 | 0.00 | 0.00 | 0.00 | 72 | 1011.6 |
| 20260502021509 | 7 | 212 | 1.6 | 6.4 | 0.00 | 0.00 | 0.00 | 74 | 1011.5 |
| 20260502021004 | 7 | 200 | 3.2 | 8.0 | 0.00 | 0.00 | 0.00 | 75 | 1011.5 |
| 20260502020511 | 7 | 205 | 1.6 | 8.0 | 0.00 | 0.00 | 0.00 | 71 | 1011.5 |
| 20260502020010 | 7 | 55 | 6.4 | 8.0 | 0.00 | 0.00 | 0.00 | 70 | 1011.5 |
| 20260502015502 | 7 | 56 | 4.8 | 8.0 | 0.00 | 0.00 | 0.00 | 71 | 1011.4 |
| 20260502015003 | 7 | 24 | 1.6 | 6.4 | 0.00 | 0.00 | 0.00 | 72 | 1011.5 |
| 20260502014519 | 7 | 51 | 0.0 | 9.7 | 0.00 | 0.00 | 0.00 | 74 | 1011.5 |
| 20260502014002 | 7 | 205 | 4.8 | 9.7 | 0.00 | 0.00 | 0.00 | 73 | 1011.5 |
| 20260502013502 | 7 | 205 | 1.6 | 6.4 | 0.00 | 0.00 | 0.00 | 71 | 1011.5 |
| 20260502013024 | 7 | 9 | 0.0 | 6.4 | 0.00 | 0.00 | 0.00 | 71 | 1011.6 |
| 20260502012504 | 7 | 238 | 3.2 | 6.4 | 0.00 | 0.00 | 0.00 | 71 | 1011.5 |
| 20260502012004 | 7 | 242 | 3.2 | 6.4 | 0.00 | 0.00 | 0.00 | 72 | 1011.5 |
| 20260502011505 | 8 | 232 | 3.2 | 6.4 | 0.00 | 0.00 | 0.00 | 72 | 1011.5 |
| 20260502011003 | 8 | 238 | 3.2 | 6.4 | 0.00 | 0.00 | 0.00 | 70 | 1011.4 |
| 20260502010505 | 8 | 250 | 1.6 | 6.4 | 0.00 | 0.00 | 0.00 | 71 | 1011.4 |
| 20260502010010 | 8 | 279 | 1.6 | 8.0 | 0.00 | 0.00 | 0.00 | 70 | 1011.4 |
| 20260502005505 | 8 | 265 | 3.2 | 8.0 | 0.00 | 0.00 | 0.00 | 68 | 1011.3 |
| 20260502005008 | 9 | 255 | 3.2 | 6.4 | 0.00 | 0.00 | 0.00 | 68 | 1011.3 |
| 20260502004516 | 9 | 247 | 3.2 | 6.4 | 0.00 | 0.00 | 0.00 | 65 | 1011.2 |
| 20260502004006 | 10 | 238 | 4.8 | 9.7 | 0.00 | 0.00 | 0.00 | 66 | 1011.2 |
| 20260502003502 | 10 | 249 | 3.2 | 9.7 | 0.00 | 0.00 | 0.00 | 65 | 1011.1 |
| 20260502003005 | 10 | 238 | 4.8 | 8.0 | 0.00 | 0.00 | 0.00 | 64 | 1011.1 |
| 20260502002503 | 10 | 250 | 4.8 | 8.0 | 0.00 | 0.00 | 0.00 | 66 | 1011.0 |
| 20260502002003 | 10 | 242 | 4.8 | 8.0 | 0.00 | 0.00 | 0.00 | 63 | 1011.0 |
| 20260502001512 | 10 | 265 | 3.2 | 8.0 | 0.00 | 0.00 | 0.00 | 63 | 1010.9 |
| 20260502001004 | 11 | 236 | 4.8 | 6.4 | 0.00 | 0.00 | 0.00 | 62 | 1010.7 |
| 20260502000504 | 11 | 225 | 3.2 | 6.4 | 0.00 | 0.00 | 0.00 | 60 | 1010.6 |
| 20260502000029 | 11 | 257 | 3.2 | 4.8 | 0.00 | 0.00 | 0.00 | 52 | 1010.5 |
| 20260501235505 | 11 | 247 | 3.2 | 9.7 | 0.00 | 0.00 | 0.00 | 51 | 1010.4 |
| 20260501235004 | 11 | 250 | 3.2 | 9.7 | 0.00 | 0.00 | 0.00 | 52 | 1010.4 |
| 20260501234512 | 12 | 232 | 1.6 | 6.4 | 0.00 | 0.00 | 0.00 | 45 | 1010.3 |
| 20260501234004 | 12 | 247 | 1.6 | 8.0 | 0.00 | 0.00 | 0.00 | 44 | 1010.2 |
| 20260501233506 | 13 | 275 | 3.2 | 16.1 | 0.00 | 0.00 | 0.00 | 43 | 1010.0 |
| 20260501233018 | 13 | 243 | 3.2 | 17.7 | 0.00 | 0.00 | 0.00 | 42 | 1010.0 |
| 20260501232506 | 13 | 241 | 6.4 | 22.5 | 0.00 | 0.00 | 0.00 | 41 | 1010.0 |
| 20260501232011 | 13 | 242 | 11.3 | 22.5 | 0.00 | 0.00 | 0.00 | 42 | 1010.0 |
| 20260501231515 | 13 | 249 | 4.8 | 16.1 | 0.00 | 0.00 | 0.00 | 45 | 1009.9 |
| 20260501231002 | 13 | 137 | 3.2 | 6.4 | 0.00 | 0.00 | 0.00 | 51 | 1009.9 |
| 20260501230505 | 13 | 309 | 1.6 | 6.4 | 0.00 | 0.00 | 0.00 | 42 | 1009.8 |
| 20260501230022 | 13 | 265 | 3.2 | 9.7 | 0.00 | 0.00 | 0.00 | 46 | 1009.8 |
| 20260501225503 | 13 | 295 | 3.2 | 9.7 | 0.00 | 0.00 | 0.00 | 42 | 1009.8 |
| 20260501225002 | 13 | 265 | 1.6 | 8.0 | 0.00 | 0.00 | 0.00 | 45 | 1009.7 |
| 20260501224508 | 13 | 342 | 3.2 | 8.0 | 0.00 | 0.00 | 0.00 | 42 | 1009.6 |
| 20260501224003 | 14 | 340 | 3.2 | 8.0 | 0.00 | 0.00 | 0.00 | 42 | 1009.6 |
| 20260501223508 | 15 | 28 | 3.2 | 8.0 | 0.00 | 0.00 | 0.00 | 40 | 1009.6 |
| 20260501223016 | 15 | 205 | 1.6 | 8.0 | 0.00 | 0.03 | 0.00 | 37 | 1009.6 |
| 20260501222507 | 15 | 221 | 0.0 | 8.0 | 0.00 | 0.03 | 0.00 | 35 | 1009.6 |
| 20260501222010 | 15 | 17 | 4.8 | 9.7 | 0.00 | 0.03 | 0.00 | 35 | 1009.6 |
| 20260501221523 | 15 | 76 | 1.6 | 9.7 | 0.00 | 0.03 | 0.00 | 35 | 1009.6 |
| 20260501221008 | 15 | 329 | 3.2 | 6.4 | 0.00 | 0.05 | 0.00 | 41 | 1009.6 |
| 20260501220508 | 15 | 265 | 0.0 | 11.3 | 0.00 | 0.05 | 0.00 | 37 | 1009.6 |
| 20260501220011 | 15 | 298 | 1.6 | 11.3 | 0.00 | 0.05 | 0.00 | 36 | 1009.7 |
| 20260501215502 | 15 | 316 | 3.2 | 8.0 | 0.00 | 0.05 | 0.00 | 40 | 1009.7 |
| 20260501215009 | 15 | 196 | 1.6 | 9.7 | 0.00 | 0.05 | 0.00 | 36 | 1009.6 |
| 20260501214509 | 15 | 236 | 3.2 | 9.7 | 0.00 | 0.05 | 0.00 | 37 | 1009.6 |
| 20260501214003 | 15 | 282 | 3.2 | 11.3 | 0.00 | 0.05 | 0.00 | 38 | 1009.6 |
| 20260501213514 | 15 | 309 | 4.8 | 19.3 | 0.00 | 0.05 | 0.00 | 35 | 1009.6 |